Hourly Data Report for June 12, 2021

TOBERMORY RCS
ONTARIO
Current Station Operator: ECCC - MSC

45°14'00.000" N
81°38'00.000" W
213.50 m
6128330
71767
TTR

Download Data

Hourly Data (June 2021)
Hourly Data Report for June 12, 2021
TIME
LST
Temp Definition
°C
Dew Point Definition
°C
Rel Hum Definition
%
Precip. Amount Definition
mm

Wind Dir Definition
10's deg

Wind Spd Definition
km/h
Visibility Definition
km
Stn Press Definition
kPa
Hmdx Definition


Wind Chill Definition


Weather Definition


00:00 11.9 11.2 95 0.0 7 5   98.74     LegendNANA
01:00 12.6 11.9 96 0.0 3 4   98.79     LegendNANA
02:00 12.2 11.5 96 0.0 6 4   98.77     LegendNANA
03:00 12.6 11.9 95 0.0 6 3   98.73     LegendNANA
04:00 13.1 12.2 94 0.0 5 3   98.74     LegendNANA
05:00 12.7 11.8 94 0.0 5 3   98.75     LegendNANA
06:00 13.3 12.2 94 0.0 5 3   98.81     LegendNANA
07:00 16.3 13.7 85 0.0 5 4   98.84     LegendNANA
08:00 14.9 12.9 88 0.0 5 7   98.79     LegendNANA
09:00 18.7 14.0 74 0.0 9 14   98.60     LegendNANA
10:00 21.0 13.4 62 0.0 12 12   98.76     LegendNANA
11:00 22.0 12.0 53 0.0 13 11   98.75     LegendNANA
12:00 20.4 13.4 64 0.0 1 11   98.76     LegendNANA
13:00 18.3 13.0 71 0.0 1 9   98.77     LegendNANA
14:00 19.0 13.6 71 0.0 3 8   98.69     LegendNANA
15:00 18.3 12.6 70 0.0 1 12   98.69     LegendNANA
16:00 19.7 11.3 58 0.0 3 8   98.67     LegendNANA
17:00 20.5 10.9 54 0.0 6 8   98.62     LegendNANA
18:00 20.2 10.7 54 0.0 5 8   98.57     LegendNANA
19:00 18.5 9.6 56 0.0 6 8   98.56     LegendNANA
20:00 16.9 9.6 62 0.0 7 6   98.58     LegendNANA
21:00 15.2 10.4 73 0.0 10 3   98.60     LegendNANA
22:00 14.1 11.0 82 0.0 12 3   98.61     LegendNANA
23:00 14.3 11.5 83 0.0 6 4   98.63     LegendNANA

Notes on Data Quality.

Legend

  • E = Estimated
  • M = Missing
  • NA = Not Available*
  • [empty] = Indicates an unobserved value
Date modified: